Regional Weather Roundup
Issued by NWS Sterling, VA

Home | Current Version | Previous Version | Text Only | Print | Product List | Glossary On
Versions: 1 2 3 4 5 6 7 8 9 10 11 12 13 14 15 16 17 18 19 20 21 22 23 24 25 26 27 28 29 30 31 32 33 34 35 36 37 38 39 40 41 42 43 44 45 46 47 48 49 50
000
ASUS41 KLWX 010210
RWRLWX

REGIONAL WEATHER ROUNDUP
NATIONAL WEATHER SERVICE BALTIMORE MD/WASHINGTON DC
1000 PM EDT FRI JUL 31 2015

Note: "FAIR" indicates few or no clouds below 12,000 feet
with no significant weather and/or obstructions to visibility.
 TC=TEMPERATURE CELSIUS

 * =Non NWS site. Station does not report precipitation (e.g. rain,
    snow, etc.), thunder, or fog.

DCZ001-MDZ009-015-VAZ040>042-051-053>054-010300-
WASHINGTON METRO

CITY           SKY/WX    TMP DP  RH WIND       PRES   REMARKS
WASHINGTON NAT CLEAR     83  61  47 SW5       29.89R
DULLES         CLEAR     73  63  70 SW5       29.90R
ANDREWS AFB    CLEAR     74  65  73 S6        29.89R
FT BELVOIR     CLEAR     70  67  90 CALM      29.89R
COLLEGE PARK*  CLEAR     72  64  78 CALM      29.88R
LEESBURG*      CLEAR     73  70  88 W6        29.91R
GAITHERSBURG*  CLEAR     70  63  78 CALM      29.93R

$$

MDZ006>007-011-014-010300-
BALTIMORE METRO

CITY           SKY/WX    TMP DP  RH WIND       PRES   REMARKS
BWI AIRPORT    CLEAR     74  62  66 CALM      29.87R
MD SCIENCE CTR   N/A     82  60  47 MISG      29.87R
MARTIN STATE   CLEAR     77  68  73 CALM      29.88R
ANNAPOLIS      CLEAR     77  67  71 CALM      29.88R
FORT MEADE*    CLEAR     68  64  88 CALM      29.90R

$$

MDZ012-015-019>023-010300-
MARYLAND EASTERN SHORE

CITY           SKY/WX    TMP DP  RH WIND       PRES   REMARKS
OCEAN CITY     CLEAR     77  62  59 SW6       29.89R
SALISBURY      CLEAR     74  66  76 CALM      29.89R
BAY BRIDGE AP*   N/A     77  63  61 S3        29.88R
CAMBRIDGE*     CLEAR     73  68  83 CALM      29.89R
EASTON*        CLEAR     77  68  74 CALM      29.93

$$

MDZ017>025-010300-
SOUTHERN MARYLAND

CITY           SKY/WX    TMP DP  RH WIND       PRES   REMARKS
PATUXENT RIVER CLEAR     74  65  73 SW7       29.89R
ST INIGOES     CLEAR     72  66  81 CALM      29.89R
LEONARDTOWN*   CLEAR     73  63  68 CALM      29.92R

$$

MDZ003>005-010300-
NORTH CENTRAL MARYLAND

CITY           SKY/WX    TMP DP  RH WIND       PRES   REMARKS
FREDERICK*     CLEAR     72  68  88 S5        29.92R
HAGERSTOWN APT CLEAR     80  57  45 SW6       29.90R
WESTMINSTER*   CLEAR     75  63  64 SW3       29.91R

$$

MDZ501>502-010300-
WESTERN MARYLAND

CITY           SKY/WX    TMP DP  RH WIND       PRES   REMARKS
OAKLAND*       CLEAR     64  64 100 SW8       30.03R
CUMBERLAND*    CLEAR     77  57  50 SW3       29.96R

$$

VAZ025>031-010300-
SHENANDOAH VALLEY

CITY           SKY/WX    TMP DP  RH WIND       PRES   REMARKS
WINCHESTER*    CLEAR     75  59  57 CALM      29.92R
FRONT ROYAL*   FAIR      72  64  78 SW3       29.91R
LURAY*         FAIR      73  64  73 S3        29.94R
NEW MARKET*    FAIR      67  62  84 CALM      29.94R
STAUNTON*      CLEAR     71  63  74 CALM      29.98R
WAYNESBORO*    FAIR      73  60  65 CALM      29.98R

$$

WVZ021-048>050-054>055-010300-
EASTERN WEST VIRGINIA PANHANDLE

CITY           SKY/WX    TMP DP  RH WIND       PRES   REMARKS
MARTINSBURG    CLEAR     74  58  57 SW3       29.90R
PETERSBURG*    CLEAR    N/A N/A N/A CALM      29.96R

$$

VAZ036>039-050-010300-
CENTRAL FOOTHILLS

CITY           SKY/WX    TMP DP  RH WIND       PRES   REMARKS
CHARLOTTESVILL CLEAR     74  67  78 CALM      29.93R
CULPEPER*      CLEAR     70  66  88 CALM      29.92R
ORANGE*        CLEAR     72  68  88 CALM      29.94R
GORDONSVILLE*  FAIR      70  64  83 CALM      29.92R
WARRENTON*     FAIR      68  67  98 CALM      29.90R

$$

VAZ055>057-010300-
NORTH AND CENTRAL PIEDMONT

CITY           SKY/WX    TMP DP  RH WIND       PRES   REMARKS
FREDERICKSBRG* CLEAR     76  67  74 CALM      29.90R
STAFFORD*      CLEAR     68  67  94 CALM      29.95R

$$

NCZ024-NYZ072-PAZ021-071-VAZ022-071-010300-
OTHER REGIONAL OBSERVATIONS

CITY           SKY/WX    TMP DP  RH WIND       PRES   REMARKS
NEW YORK CITY  CLEAR     81  52  36 CALM      29.85R
PHILADELPHIA   CLEAR     82  61  48 SW7       29.86R
PITTSBURGH     PTCLDY    76  57  51 SW7       29.91R
ROANOKE        CLEAR     71  57  61 NW7       30.01R
RICHMOND       CLEAR     76  64  66 S3        29.93R
RALEIGH        PTCLDY    77  65  66 CALM      29.96R

$$

ANZ530>537-010300-
MARINE OBSERVATIONS

STATION/POSITION TIME  TEMP    WIND        PRES
                       AIR SEA DIR/SP/G
                 (UTC) (F)     (DEG/KT/KT) (MB)
THOMAS PT LIGHT  0100   83     230/  4/  4 1011.7R
BALT KEY BRIDGE  0100   84     210/  4/  5 1010.7R
COVE POINT       0100   82     270/  5/  6 1012.3R
LEWISETTA        0100   80 85  250/  6/  7 1011.8R
SOLOMONS ISLAND  0100      83                N/A
PINEY POINT      0100          240/  6/  9   N/A

$$




USA.gov is the U.S. government's official web portal to all federal, state and local government web resources and services.